SCP
0 0 0 0 0 0 0 0 0 0 0 0 0 0 0 0 0 0 0 0 0 0 0 0 0 0 0 0 0 0 0 0 0 0 0 0 0 0
0 0 0 0 0 0 0 0 0 0 0 0 0 0 0 0 0 0 0 0 0 0 0 0 0 0 0 0 0 0 0 0 0 0 0 0 0 0
0 0 0 0 0 0 0 0 0 0 0 0 0 0 0 0 0 0 0 0 0 0 0 0 0 0 0 0 0 0 0 0 0 0 0 0 0 0
0 0 0 0 0 0 0 0 0 0 0 0 0 0 0 0 0 0 0 0 0 0 0 0 0 0 0 0 0 0 0 0 0 0 0 0 0 0
0 0 0 0 0 0 0 0 0 0 0 0 0 0 0 0 0 0 0 0 0 0 0 0 0 0 0 0 0 0 0 0 0 0 0 0 0 0
0 0 0 0 0 0 0 0 0 0 0 0 0 0 0 0 0 0 0 0 0 0 0 0 0 0 0 0 0 0 0 0 0 0 0 0 0 0
0 0 0 0 0 0 0 0 0 0 0 0 0 0 0 0 0 0 0 0 0 0 0 0 0 0 0 0 0 0 0 0 0 0 0 0 0 0
0 0 0 0 0 0 0 0 0 0 0 0 0 0 0 0 0 0 0 0 0 0 0 0 0 0 0 0 0 0 0 0 0 0 0 0 0 0
0 0 0 0 0 0 0 0 0 0 0 0 0 0 0 0 0 0 0 0 0 0 0 0 0 0 0 0 0 0 0 0 0 0 0 0 0 0
0 0 0 0 0 0 0 0 0 0 0 0 0 0 0 0 0 0 0 0 0 0 0 0 0 0 0 0 0 0 0 0 0 0 0 0 0 0
0 0 0 0 0 0 0 0 0 0 0 0 0 0 0 0 0 0 0 0 0 0 0 0 0 0 0 0 0 0 0 0 0 0 0 0 0 0
0 0 0 0 0 0 0 0 0 0 0 0 0 0 0 0 0 0 0 0 0 0 0 0 0 0 0 0 0 0 0 0 0 0 0 0 0 0
0 0 0 0 0 0 0 0 0 0 0 0 0 0 0 0 0 0 0 0 0 0 0 0 0 0 0 0 0 0 0 0 0 0 0 0 0 0
0 0 0 0 0 0 0 0 0 0 0 0 0 0 0 0 0 0 0 0 0 0 0 0 0 0 0 0 0 0 0 0 0 0 0 0 0 0
0 0 0 0 0 0 0 0 0 0 0 0 0 0 0 0 0 0 0 0 0 0 0 0 0 0 0 0 0 0 0 0 0 0 0 0 0 0
0 0 0 0 0 0 0 0 0 0 0 0 0 0 0 0 0 0 0 0 0 0 0 0 0 0 0 0 0 0 0 0 0 0 0 0 0 0
0 0 0 0 0 0 0 0 0 0 0 0 0 0 0 0 0 0 0 0 0 0 0 0 0 0 0 0 0 0 0 0 0 0 0 0 0 0
0 0 0 0 0 0 0 0 0 0 0 0 0 0 0 0 0 0 0 0 0 0 0 0 0 0 0 0 0 0 0 0 0 0 0 0 0 0
0 0 0 0 0 0 0 0 0 0 0 0 0 0 0 0 0 0 0 0 0 0 0 0 0 0 0 0 0 0 0 0 0 0 0 0 0 0
0 0 0 0 0 0 0 0 0 0 0 0 0 0 0 0 0 0 0 0 0 0 0 0 0 0 0 0 0 0 0 0 0 0 0 0 0 0
0 0 0 0 0 0 0 0 0 0 0 0 0 0 0 0 0 0 0 0 0 0 0 0 0 0 0 0 0 0 0 0 0 0 0 0 0 0
0 0 0 0 0 0 0 0 0 0 0 0 0 0 0 0 0 0 0 0 0 0 0 0 0 0 0 0 0 0 0 0 0 0 0 0 0 0
0 0 0 0 0 0 0 0 0 0 0 0 0 0 0 0 0 0 0 0 0 0 0 0 0 0 0 0 0 0 0 0 0 0 0 0 0 0
Wind_Speed
4 4 3 3 3 3 3 3 3 2 3 2 2 1 2 2 2 2 2 2 3 3 4 5 6 7 7 8 8 8 9 9 9 9 9 9 10 11
2 2 2 2 2 2 3 3 3 3 3 2 2 2 2 1 1 1 1 0 0 1 1 2 4 5 5 6 7 7 8 9 9 9 9 9 9 10
2 2 3 2 2 2 2 2 3 3 3 2 1 2 1 1 1 1 1 1 1 1 0 1 2 3 4 4 5 5 6 7 8 8 8 9 9 10
1 1 2 2 2 2 2 2 2 3 3 3 1 1 1 1 1 1 1 1 1 1 1 1 1 1 1 2 3 3 4 4 5 6 7 7 8 8
1 1 2 1 2 1 2 2 2 1 1 1 1 0 1 1 2 2 2 2 2 2 2 2 2 2 2 1 1 1 2 2 3 4 4 5 6 6
1 0 1 1 1 1 1 1 1 1 1 1 0 1 1 1 1 1 2 2 2 3 3 3 4 4 4 3 3 2 1 1 1 2 3 3 4 4
1 1 1 2 3 2 1 1 2 2 2 2 1 1 1 1 1 1 1 1 2 2 2 3 3 3 4 4 3 3 2 2 1 1 1 1 2 2
1 1 2 2 4 5 6 5 4 3 3 2 1 1 1 1 1 1 0 1 1 2 2 2 3 3 3 3 5 5 4 3 3 3 2 2 2 1
1 1 2 3 3 4 6 7 7 6 4 3 2 0 1 1 0 1 1 1 1 2 1 2 3 3 3 4 6 5 5 5 5 4 4 3 3 2
2 2 2 2 3 4 5 5 5 5 4 3 2 1 2 1 1 1 1 1 1 2 2 1 2 2 3 3 7 7 7 7 6 5 5 4 4 4
3 3 3 3 4 5 5 5 5 4 6 7 6 5 6 6 3 2 2 2 1 2 2 1 1 1 2 2 4 7 7 7 7 6 5 4 4 3
3 3 5 4 5 5 5 5 4 2 3 4 6 6 5 5 6 3 1 1 1 1 2 1 1 1 1 2 3 3 4 5 6 6 6 5 4 2
3 2 3 6 6 6 5 4 3 3 4 4 4 5 4 4 4 3 2 2 2 1 1 1 1 1 1 1 2 3 3 3 4 4 5 5 4 2
3 2 4 7 7 7 5 5 6 5 4 4 4 4 3 3 3 4 4 4 3 2 1 1 1 1 0 0 1 2 3 3 3 3 3 4 4 3
4 6 6 7 7 6 8 7 6 4 4 4 4 3 3 3 3 3 4 4 5 5 4 3 2 1 1 0 1 2 2 3 3 3 3 3 3 2
5 6 8 8 7 6 6 5 4 4 4 4 3 3 3 3 4 3 3 3 3 4 5 5 4 2 1 1 1 1 2 3 3 4 3 3 3 2
5 4 4 4 4 4 4 4 4 4 4 3 3 3 3 4 3 3 3 3 3 3 4 4 4 3 2 1 1 2 2 3 3 4 3 3 3 3
6 5 4 3 3 3 3 3 3 3 3 3 3 3 3 3 3 3 3 3 3 3 3 3 3 2 2 2 1 2 3 3 4 4 3 3 4 3
6 4 3 3 3 2 2 2 2 2 2 2 3 2 2 2 2 2 2 2 2 2 2 2 2 2 3 3 3 2 3 4 4 3 3 3 4 5
3 3 3 2 2 2 2 2 2 2 2 2 2 2 2 2 2 2 2 2 2 2 2 3 3 3 2 3 3 3 4 4 3 4 4 3 4 5
3 3 2 2 2 2 2 2 2 2 2 2 2 2 2 2 2 2 2 2 2 2 3 3 4 4 2 2 2 3 3 4 4 4 4 4 4 4
3 3 2 2 2 2 2 2 2 2 2 2 2 2 2 2 2 2 2 2 2 2 3 3 4 3 2 2 3 4 4 5 4 4 4 3 4 4
3 2 2 2 2 2 2 2 2 2 1 1 1 1 2 2 1 1 2 2 2 3 3 3 3 3 3 3 3 4 5 6 5 4 4 5 6 6
Wind_Direction
223 219 224 231 214 214 209 198 198 254 277 272 276 282 262 259 267 240 235 227 222 231 231 231 230 232 232 231 232 234 237 238 239 241 245 249 250 250
223 223 236 240 230 220 208 203 200 208 244 264 263 295 299 290 306 233 219 93 183 229 240 248 244 238 236 235 237 238 237 236 237 241 244 247 250 252
227 220 247 242 236 233 211 201 205 200 226 268 280 314 324 10 28 56 62 69 43 81 313 273 258 245 241 242 242 241 244 245 245 245 246 248 250 251
240 233 265 261 247 233 210 213 212 207 207 243 279 328 358 37 44 53 39 34 349 33 33 10 357 334 280 263 256 246 244 249 254 256 254 251 252 253
229 245 274 273 268 241 199 208 211 200 188 203 266 356 12 30 33 27 32 19 14 29 41 36 25 24 20 10 342 289 267 263 263 262 265 265 262 261
119 120 313 306 286 239 195 201 169 140 122 116 66 18 6 6 36 24 11 17 14 17 28 31 32 36 33 26 26 23 358 314 297 290 284 276 274 275
84 65 57 62 62 70 89 107 121 114 106 97 78 47 17 18 9 5 355 1 18 22 16 20 27 30 22 15 24 34 36 31 17 354 333 320 309 296
112 71 61 54 67 75 77 80 91 110 115 107 85 54 335 339 349 8 355 12 3 7 10 14 32 28 17 24 27 41 47 45 43 36 28 30 28 12
99 77 66 62 72 82 77 74 70 72 96 134 131 217 291 302 48 59 38 49 23 357 15 25 23 24 13 23 28 34 36 38 40 38 33 27 21 18
86 88 90 72 79 98 91 76 65 53 64 82 90 57 35 29 101 163 134 92 53 25 28 37 13 13 8 17 31 38 38 36 37 37 36 32 33 32
76 76 90 87 75 95 98 91 75 56 60 68 69 61 55 47 56 82 82 98 52 20 24 37 354 356 16 16 23 31 34 35 32 29 26 25 19 16
75 68 73 83 80 93 99 99 92 66 64 58 50 41 44 46 52 64 91 106 90 20 11 17 1 356 13 11 4 10 19 25 27 26 25 20 11 19
93 75 70 81 81 82 87 94 108 103 83 74 63 50 44 40 37 38 41 80 94 60 12 38 39 17 13 332 347 357 1 5 12 16 18 13 9 15
105 94 85 85 82 78 80 79 85 86 83 75 64 48 37 30 28 36 45 52 55 56 40 62 65 37 36 336 331 341 351 1 3 1 1 4 13 18
92 95 91 86 83 74 67 71 76 78 80 73 61 40 22 16 28 38 43 50 54 47 39 29 33 27 21 320 313 323 335 348 353 349 346 352 354 354
88 81 79 77 75 73 69 64 64 70 79 76 62 44 38 39 36 28 33 32 42 30 26 28 24 28 25 10 9 346 346 339 340 342 336 332 338 341
105 85 75 75 75 70 67 62 61 62 64 62 62 52 45 42 32 23 32 42 44 24 10 9 18 27 24 19 23 355 343 336 332 335 331 331 333 336
102 96 92 89 88 85 82 71 62 57 54 58 60 54 46 40 35 32 40 47 44 28 16 5 6 24 31 35 9 327 333 328 326 327 321 317 322 332
94 99 99 96 91 90 89 84 71 55 55 60 57 49 46 42 40 37 38 40 35 22 9 4 10 16 6 351 350 350 320 319 320 323 323 317 313 320
92 105 106 104 104 104 99 91 81 70 61 53 47 42 41 42 35 28 26 28 26 15 9 9 9 1 340 321 312 319 321 310 315 318 317 310 306 303
97 96 99 103 99 97 99 93 88 83 71 63 53 43 36 38 32 20 18 22 18 11 2 353 336 321 300 295 306 327 340 333 318 312 315 313 318 319
106 104 96 93 96 93 90 90 87 80 74 67 54 45 37 34 29 20 17 15 5 356 342 337 341 342 344 337 331 331 335 340 339 328 315 303 315 319
118 112 103 96 91 91 90 90 90 76 57 46 42 40 41 31 20 18 13 8 358 354 347 342 347 349 346 339 334 335 339 340 340 341 343 339 323 308